Location: Ste-F�licit�
(48.8999°N, 67.3360°W)
Time: 19:44:07
(UTC-04:00)

ISS - Visible Passes

Search period start: 08 May 2021 00:00
Search period end: 18 May 2021 00:00
Orbit: 418 x 421 km, 51.6° (Epoch: 08 May)

Date Brightness Start Highest point End Pass type
(mag) Time Alt. Az. Time Alt. Az. Time Alt. Az.
08 May -2.3 01:28:13 33° ENE 01:28:13 33° ENE 01:30:13 10° ENE visible
08 May -3.0 03:01:09 15° W 03:03:48 52° N 03:07:07 10° ENE visible
09 May -1.1 00:42:14 14° ENE 00:42:14 14° ENE 00:42:46 10° ENE visible
09 May -3.2 02:15:10 35° WNW 02:16:18 57° N 02:19:39 10° ENE visible
09 May -3.2 03:50:01 10° WNW 03:53:23 60° N 03:56:45 10° E visible
10 May -3.3 01:29:10 60° NNE 01:29:10 60° NNE 01:32:11 10° ENE visible
10 May -3.0 03:02:34 10° WNW 03:05:53 53° N 03:09:13 10° E visible
11 May -1.9 00:43:08 26° ENE 00:43:08 26° ENE 00:44:45 10° ENE visible
11 May -2.9 02:16:03 18° WNW 02:18:23 51° N 02:21:42 10° ENE visible
11 May -3.8 03:51:59 10° WNW 03:55:23 89° SSW 03:58:46 10° ESE visible
11 May -1.0 23:57:02 12° ENE 23:57:02 12° ENE 23:57:18 10° ENE visible
12 May -3.0 01:29:58 38° NW 01:30:52 52° N 01:34:11 10° ENE visible
12 May -3.5 03:04:33 10° WNW 03:07:56 72° NNE 03:11:18 10° ESE visible
13 May -3.0 00:43:46 52° NNE 00:43:46 52° NNE 00:46:43 10° ENE visible
13 May -3.2 02:17:06 10° WNW 02:20:27 60° N 02:23:48 10° E visible
13 May -3.5 03:53:59 10° WNW 03:57:15 45° SSW 04:00:30 10° SE visible
13 May -2.3 23:57:17 31° ENE 23:57:17 31° ENE 23:59:15 10° ENE visible
14 May -3.0 01:30:09 14° WNW 01:32:57 53° N 01:36:17 10° E visible
14 May -3.8 03:06:30 10° WNW 03:09:52 66° SSW 03:13:13 10° ESE visible
14 May -2.7 21:29:03 10° SSW 21:31:51 25° SE 21:34:40 10° E visible
14 May -3.8 23:05:01 10° WSW 23:08:24 83° NNW 23:11:48 10° ENE visible
15 May -2.9 00:42:08 10° WNW 00:45:26 51° N 00:48:45 10° ENE visible
15 May -3.9 02:19:03 10° WNW 02:22:26 89° SSW 02:25:50 10° ESE visible
15 May -2.4 03:56:18 10° W 03:58:55 21° SW 04:01:33 10° SSE visible
15 May -2.2 20:42:21 10° S 20:44:35 17° SE 20:46:50 10° E visible
15 May -3.9 22:17:37 10° WSW 22:20:58 75° SSE 22:24:21 10° ENE visible
15 May -2.9 23:54:37 10° W 23:57:56 52° N 00:01:15 10° ENE visible
16 May -3.6 01:31:36 10° WNW 01:34:59 72° NNE 01:38:22 10° ESE visible
16 May -3.0 03:08:36 10° W 03:11:38 31° SW 03:14:39 10° SSE visible
16 May -3.7 21:30:17 10° SW 21:33:34 53° SSE 21:36:52 10° ENE visible
16 May -3.1 23:07:04 10° W 23:10:24 56° N 23:13:44 10° ENE visible
17 May -3.3 00:44:09 10° WNW 00:47:30 60° N 00:49:00 29° E visible
17 May -1.7 02:21:02 10° WNW 02:26:41 16° SE 02:27:31 10° SE visible
17 May -3.2 20:43:05 10° SW 20:46:12 36° SSE 20:49:21 10° E visible
17 May -3.4 22:19:33 10° W 22:22:55 66° NNW 22:26:17 10° ENE visible
